Time,B instrument,Bx,By,Bz,sigma B,Ion instrument,Status,Tp_par,Tp_perp,carrot,r_sun,clat,clong,earth_he_angle,n_p,vp_x,vp_y,vp_z,vth_p_par,vth_p_perp
1980-01-13 00:17:47,-1,nan,nan,nan,nan,1,3,nan,nan,1690,0.84201825,3.6405516,80.845459,293.57983,nan,367.325,12.4438,18.0008,nan,nan
1980-01-13 01:00:59,-1,nan,nan,nan,nan,1,3,nan,nan,1690,0.84222728,3.6374502,80.448975,293.57788,nan,350.538,7.35029,-1.96419,nan,nan
1980-01-13 01:44:12,-1,nan,nan,nan,nan,1,3,nan,nan,1690,0.8424409,3.6342802,80.052246,293.57568,nan,363.166,8.78579,1.97361,nan,nan
1980-01-13 02:27:24,-1,nan,nan,nan,nan,1,3,nan,nan,1690,0.84264958,3.6311817,79.656006,293.57397,nan,360.22,2.85969,3.00119,nan,nan
1980-01-13 03:10:36,-1,nan,nan,nan,nan,1,3,nan,nan,1690,0.84285814,3.6280842,79.259521,293.57202,nan,339.645,28.3172,5.13895,nan,nan
1980-01-13 03:53:48,-1,nan,nan,nan,nan,1,3,nan,nan,1690,0.84306645,3.6249876,78.862793,293.56982,nan,320.604,24.4029,39.4581,nan,nan
1980-01-13 04:37:00,-1,nan,nan,nan,nan,1,3,nan,nan,1690,0.84327948,3.6218195,78.466309,293.56787,nan,315.409,19.8594,30.4441,nan,nan
1980-01-13 05:20:12,-1,nan,nan,nan,nan,1,3,nan,nan,1690,0.8434875,3.6187239,78.069824,293.56592,nan,318.989,26.3518,11.3936,nan,nan
1980-01-13 06:03:24,-1,nan,nan,nan,nan,1,3,nan,nan,1690,0.8436954,3.6156273,77.673096,293.56372,nan,316.567,-8.67967,-5.51561,nan,nan
1980-01-13 06:46:36,-1,nan,nan,nan,nan,1,3,nan,nan,1690,0.84390306,3.6125336,77.276367,293.56152,nan,322.583,8.78317,-11.4304,nan,nan
1980-01-13 07:29:48,-1,nan,nan,nan,nan,1,3,nan,nan,1690,0.84411061,3.6094398,76.879883,293.55957,nan,375.583,7.5794,-32.5023,nan,nan
1980-01-13 08:13:00,-1,nan,nan,nan,nan,1,3,nan,nan,1690,0.84432274,3.6062756,76.483398,293.55762,nan,355.401,-2.9322,-19.5523,nan,nan
1980-01-13 08:56:12,-1,nan,nan,nan,nan,1,3,nan,nan,1690,0.84452993,3.6031837,76.08667,293.55542,nan,362.136,-12.9203,-20.5694,nan,nan
1980-01-13 10:59:00,-1,nan,nan,nan,nan,1,3,nan,nan,1690,0.84512174,3.5943422,74.955566,293.54932,nan,362.705,19.433,-11.8082,nan,nan
1980-01-13 10:59:40,-1,nan,nan,nan,nan,1,3,nan,nan,1690,0.84512174,3.5943422,74.95166,293.54932,nan,362.361,17.6371,-14.2339,nan,nan
1980-01-13 11:01:28,-1,nan,nan,nan,nan,1,4,nan,nan,1690,0.84513134,3.5941982,74.935791,293.54907,nan,nan,nan,nan,nan,nan
1980-01-13 11:02:09,-1,nan,nan,nan,nan,1,3,nan,nan,1690,0.84513617,3.5941267,74.927979,293.54907,nan,360.69,17.3507,-20.7298,nan,nan
1980-01-13 11:02:49,-1,nan,nan,nan,nan,1,3,nan,nan,1690,0.84513617,3.5941267,74.920166,293.54907,nan,358.6,16.2137,-17.1608,nan,nan
1980-01-13 11:03:17,-1,nan,nan,nan,nan,1,3,nan,nan,1690,0.84514093,3.5940542,74.91626,293.54907,nan,367.798,18.5576,-13.6855,nan,nan
1980-01-13 11:03:57,2,-2.58,8.68,-8.24,0.0860233,1,1,42320.4,25053.8,1690,0.84514093,3.5940542,74.912354,293.54907,9.06044,359.716,8.77154,-23.38,26.4322,20.3374
1980-01-13 11:04:38,2,-3.9125,8.4075,-7.6425,0.0992786,1,1,35328.3,29909.1,1690,0.84514576,3.5939827,74.904541,293.54907,9.05468,350.025,11.1835,-24.0779,24.1501,22.2208
1980-01-13 11:05:18,2,-3.31667,7.76333,-8.68667,0.511599,1,1,60063.7,30723.8,1690,0.84515053,3.5939112,74.900635,293.54907,10.3417,353.419,7.58809,-25.2818,31.4894,22.5214
1980-01-13 11:05:58,2,-3.578,7.058,-9.382,0.404781,1,1,52227.3,35115.3,1690,0.84515053,3.5939112,74.892822,293.54907,10.3692,351.629,5.57873,-28.3752,29.3634,24.0772
1980-01-13 11:07:19,-1,nan,nan,nan,nan,1,3,nan,nan,1690,0.84516019,3.5937672,74.880859,293.54883,nan,351.908,1.62619,-29.6075,nan,nan
1980-01-13 11:08:00,2,-3.9025,6.6775,-9.0525,0.36518,1,1,46232.0,32366.5,1690,0.84516495,3.5936947,74.873047,293.54883,9.69872,350.168,3.35183,-25.2539,27.6267,23.1156
1980-01-13 11:08:41,2,-3.9175,7.3225,-8.59,0.469987,1,1,38264.8,32855.6,1690,0.84516495,3.5936947,74.869141,293.54883,9.65578,354.961,11.1736,-24.0488,25.1338,23.2896
1980-01-13 11:09:21,1,-4.58333,10.5167,-6.63333,1.22066,1,1,49908.2,31042.8,1690,0.84516978,3.5936232,74.861328,293.54883,10.4489,360.479,13.0057,-20.5792,28.7041,22.638
1980-01-13 11:10:02,1,-4.85714,8.27143,-8.48571,0.696932,1,1,59508.0,27976.0,1690,0.84517455,3.5935516,74.853516,293.54883,8.6965,358.124,-0.285233,-25.513,31.3434,21.4907
1980-01-13 11:10:42,1,-5.79231,8.5,-8.33077,0.831908,1,1,31774.5,33851.7,1690,0.84517455,3.5935516,74.849609,293.54883,9.35437,355.287,3.02227,-24.742,22.9032,23.64
1980-01-13 11:11:23,1,-6.06154,10.7769,-6.37692,0.793091,1,1,27083.0,23750.7,1690,0.84517938,3.5934792,74.841553,293.54858,8.25821,356.805,17.5608,-15.1181,21.1449,19.8014
1980-01-13 11:12:03,1,-5.03846,12.0077,-5.99231,1.14654,1,1,45777.2,31515.7,1690,0.84518421,3.5934076,74.837646,293.54858,8.2427,351.682,12.9923,-13.8442,27.4905,22.8098
1980-01-13 11:12:44,1,-6.65,10.5917,-6.43333,0.882507,1,1,32540.6,32003.4,1690,0.84518421,3.5934076,74.829834,293.54858,8.54291,351.086,14.7281,-19.8614,23.1777,22.9856
1980-01-13 11:13:24,1,-8.15,8.71667,-7.33333,0.633333,1,1,24833.9,32882.3,1690,0.84518898,3.5933361,74.825928,293.54858,9.09116,341.222,-2.73097,-23.7369,20.2479,23.2991
1980-01-13 11:14:04,1,-7.8,9.3,-7.4,0.493288,1,1,25659.1,35225.7,1690,0.8451938,3.5932636,74.818115,293.54858,8.99837,348.542,10.0546,-22.9608,20.5816,24.115
1980-01-13 11:50:00,-1,nan,nan,nan,nan,1,3,nan,nan,1690,0.84536672,3.5906754,74.488281,293.54688,nan,345.919,-2.10682,-21.4061,nan,nan
1980-01-13 11:50:40,1,-3.85385,4.73846,-10.6077,0.444826,1,1,30289.3,39642.8,1690,0.84536672,3.5906754,74.480469,293.54688,10.7906,344.151,2.10635,-23.1116,22.3616,25.5823
1980-01-13 11:51:21,1,-5.33333,6.10833,-9.49167,1.59805,1,1,33610.7,39726.3,1690,0.84537148,3.5906038,74.476318,293.54663,11.4572,340.504,6.86447,-21.4807,23.5557,25.6093
1980-01-13 11:52:01,1,-6.5,6.53846,-8.29231,0.704928,1,1,36873.2,48029.1,1690,0.84537631,3.5905323,74.468506,293.54663,9.72552,347.735,-0.851637,-29.2827,24.6725,28.1585
1980-01-13 11:52:43,1,-6.33077,6.68462,-8.29231,0.522851,1,1,28655.6,42055.2,1690,0.84537631,3.5905323,74.4646,293.54663,9.49722,347.965,-0.0887024,-28.7571,21.7502,26.3492
1980-01-13 11:53:23,1,-6.78462,5.63846,-8.56923,0.63339,1,1,26811.6,28962.9,1690,0.84538108,3.5904598,74.456787,293.54663,9.72582,348.159,-7.69233,-32.5232,21.0387,21.8665
1980-01-13 11:54:03,1,-6.93846,5.55385,-9.03077,0.412382,1,1,26558.0,30272.4,1690,0.84538591,3.5903883,74.448975,293.54663,8.48203,349.916,-7.3537,-23.3668,20.939,22.3553
1980-01-13 11:54:44,1,-5.25385,4.54615,-10.0923,0.882036,1,1,33839.6,32037.0,1690,0.84538591,3.5903883,74.445068,293.54663,9.69884,351.983,-7.60825,-24.7347,23.6358,22.9977
1980-01-13 11:55:25,1,-5.05833,5.10833,-9.75,1.24994,1,1,38111.7,43661.8,1690,0.84539074,3.5903158,74.437256,293.54663,10.4908,347.533,-11.1667,-27.387,25.0834,26.8478
1980-01-13 11:56:05,1,-6.225,5.89167,-9.33333,0.484625,1,1,35890.3,31281.9,1690,0.84539551,3.5902443,74.433105,293.54639,9.32339,348.263,-12.1942,-24.9194,24.3415,22.725
1980-01-13 11:56:45,1,-6.49167,6.26667,-9.16667,0.376663,1,1,34406.9,34012.9,1690,0.84539551,3.5902443,74.425293,293.54639,8.98462,346.316,-7.88118,-25.7916,23.8331,23.6963
1980-01-13 11:57:26,1,-6.6,5.66667,-9.73333,0.50277,1,1,31787.5,31342.2,1690,0.84540033,3.5901728,74.421387,293.54639,10.077,350.715,-12.2417,-23.4535,22.908,22.7469
1980-01-13 11:58:07,1,-6.22308,6.23077,-9.18462,0.435686,1,1,37256.8,31492.9,1690,0.8454051,3.5901003,74.413574,293.54639,10.1005,348.128,-4.98733,-27.4913,24.8005,22.8015
1980-01-13 11:58:47,1,-6.68462,6.34615,-9.18462,0.398666,1,1,27411.7,27558.4,1690,0.8454051,3.5901003,74.405762,293.54639,9.11681,349.755,-8.25359,-21.9202,21.2729,21.3297
1980-01-13 11:59:27,1,-4.525,6.775,-9.7,0.989318,1,1,33314.5,32555.3,1690,0.84540993,3.5900288,74.401855,293.54639,9.55536,363.805,-3.17106,-26.586,23.4517,23.183
1980-01-13 12:00:08,1,-5.44615,6.03846,-9.73846,0.800665,1,1,30602.0,29569.6,1690,0.84541476,3.5899572,74.394043,293.54639,9.2925,357.396,-10.3477,-26.9413,22.4767,22.0943
1980-01-13 12:00:49,1,-5.71538,6.45385,-9.70769,0.599901,1,1,26896.3,37683.0,1690,0.84541476,3.5899572,74.390137,293.54639,10.0367,356.567,-4.00035,-28.9348,21.0719,24.942
1980-01-13 12:01:29,1,-6.70769,6.60769,-9.06154,0.812841,1,1,30416.0,29139.7,1690,0.84541953,3.5898848,74.38208,293.54614,9.0311,352.09,-6.85187,-24.4698,22.4083,21.9331
1980-01-13 12:02:09,1,-6.125,6.8,-8.81667,0.503253,1,1,29442.9,35385.7,1690,0.84542429,3.5898132,74.374268,293.54614,9.82654,348.987,-2.80855,-27.9001,22.0469,24.1697
1980-01-13 12:02:50,1,-5.58462,7.32308,-9.0,0.357341,1,1,34874.6,32854.1,1690,0.84542435,3.5898132,74.370361,293.54614,9.39086,350.341,-2.29947,-25.5865,23.9945,23.2891
1980-01-13 12:03:31,1,-5.125,7.1,-9.73333,0.375185,1,1,29951.6,32444.1,1690,0.84542912,3.5897417,74.362549,293.54614,9.54176,351.088,-3.13734,-24.6932,22.2366,23.1433
1980-01-13 12:04:11,1,-5.19231,6.74615,-9.84615,0.303042,1,1,30671.0,28399.6,1690,0.84543389,3.5896692,74.358643,293.54614,9.00075,352.38,-8.27587,-24.342,22.502,21.6528
1980-01-13 12:04:51,1,-5.475,6.91667,-9.65,0.41725,1,1,29019.3,34090.7,1690,0.84543395,3.5896692,74.35083,293.54614,9.65352,354.109,-1.38236,-23.9982,21.8878,23.7233
1980-01-13 12:05:32,1,-4.43077,7.50769,-9.53846,0.471307,1,1,30778.7,30095.4,1690,0.84543872,3.5895977,74.346924,293.54614,8.91027,351.899,-3.17541,-24.9193,22.5415,22.2899
1980-01-13 12:06:13,1,-5.03333,7.34167,-9.46667,0.412563,1,1,29080.8,31485.2,1690,0.84544349,3.5895262,74.338867,293.5459,9.22241,349.708,0.229607,-23.5728,21.9109,22.7988
1980-01-13 12:06:53,1,-5.08333,7.475,-9.16667,0.424837,1,1,27452.2,35390.0,1690,0.84544349,3.5895262,74.331055,293.5459,9.13311,344.27,-0.92094,-24.2224,21.2886,24.1712
1980-01-13 12:07:33,1,-5.01667,7.28333,-9.2,0.340751,1,1,23439.0,31599.5,1690,0.84544832,3.5894537,74.327148,293.5459,8.86212,348.354,0.105169,-22.8766,19.6711,22.8401
1980-01-13 12:08:14,1,-4.21667,7.625,-9.1,0.556714,1,1,29843.9,37416.1,1690,0.84545308,3.5893822,74.319336,293.5459,9.23698,347.943,-1.06161,-26.7572,22.1966,24.8535
1980-01-13 12:08:55,1,-3.35833,7.675,-9.31667,0.677516,1,1,33781.1,35687.8,1690,0.84545308,3.5893822,74.31543,293.5459,9.69728,354.5,3.04036,-24.8433,23.6154,24.2727
1980-01-13 12:09:35,1,-4.31538,6.7,-9.13846,0.437448,1,1,40620.0,33997.7,1690,0.84545791,3.5893106,74.307617,293.5459,10.1102,348.887,-2.96705,-28.0028,25.8957,23.6909
1980-01-13 12:10:15,1,-4.87692,6.62308,-8.92308,1.12828,1,1,41039.4,42660.5,1690,0.84546268,3.5892382,74.303711,293.5459,12.2138,350.587,-3.36865,-30.3836,26.029,26.5382
1980-01-13 12:10:56,1,-5.5,4.13846,-8.92308,0.574714,1,1,48462.0,41437.8,1690,0.84546268,3.5892382,74.295898,293.5459,10.4601,350.922,-13.9852,-30.8517,28.2852,26.1551
1980-01-13 12:11:37,1,-6.15,4.50833,-8.55833,0.816922,1,1,36891.4,42034.6,1690,0.84546751,3.5891666,74.287842,293.54565,10.3706,342.61,-5.92889,-27.4654,24.6786,26.3428
1980-01-13 12:12:17,1,-6.775,4.38333,-8.5,0.665781,1,1,33530.4,39213.5,1690,0.84547228,3.5890951,74.283936,293.54565,10.7955,341.047,-11.3843,-26.6118,23.5276,25.4434
1980-01-13 12:12:58,1,-5.64615,7.40769,-8.63077,0.389203,1,1,36524.6,37387.0,1690,0.84547228,3.5890951,74.276123,293.54565,11.1158,349.507,3.1695,-26.4492,24.5556,24.8438
1980-01-13 12:13:38,1,-5.69231,7.38462,-8.38462,0.447478,1,1,30548.0,34311.5,1690,0.8454771,3.5890226,74.272217,293.54565,10.2705,346.69,-1.73307,-25.9898,22.4569,23.8
1980-01-13 12:14:19,1,-5.49231,7.93077,-8.21538,0.53305,1,1,34517.4,34177.8,1690,0.84548187,3.5889511,74.264404,293.54565,10.4118,344.875,2.69774,-26.3099,23.8713,23.7536
1980-01-13 12:14:59,1,-4.78462,7.87692,-8.8,0.296129,1,1,33830.1,31033.8,1690,0.84548187,3.5889511,74.260498,293.54565,9.09904,352.377,-0.785815,-23.8484,23.6325,22.6347
1980-01-13 12:15:39,1,-4.51538,7.38462,-8.83077,0.33068,1,1,31592.4,28965.3,1690,0.8454867,3.5888796,74.252686,293.54565,9.92764,352.194,0.692508,-21.0835,22.8375,21.8674
1980-01-13 12:16:20,1,-4.50769,6.87692,-8.61538,0.351834,1,1,40144.8,38591.7,1690,0.84549147,3.5888071,74.244629,293.54541,10.4501,348.171,-2.13078,-25.975,25.7438,25.2409
1980-01-13 12:17:01,1,-4.93333,6.03333,-9.0,0.359784,1,1,41575.9,38845.1,1690,0.8454963,3.5887356,74.240723,293.54541,11.1553,352.47,-1.93097,-25.1702,26.1987,25.3236
1980-01-13 12:17:41,1,-4.72308,6.53846,-9.01538,0.567774,1,1,42449.4,34388.6,1690,0.8454963,3.5887356,74.23291,293.54541,10.365,353.01,-2.65825,-24.3516,26.4724,23.8268
1980-01-13 12:18:21,1,-5.10833,5.55,-9.43333,0.370341,1,1,38000.3,35053.4,1690,0.84550107,3.5886641,74.229004,293.54541,9.89536,351.359,-4.66975,-25.0055,25.0468,24.056
1980-01-13 12:19:02,1,-5.85385,5.21538,-9.09231,0.593455,1,1,30904.8,29266.2,1690,0.84550589,3.5885925,74.221191,293.54541,9.10013,349.288,-9.24886,-22.7901,22.5877,21.9807
1980-01-13 12:19:43,1,-8.36667,6.01667,-7.03333,0.625167,1,1,23743.9,31533.3,1690,0.84550589,3.5885916,74.213379,293.54541,9.16593,337.544,-2.36714,-21.0501,19.7986,22.8162
1980-01-13 12:20:23,1,-9.08462,6.38462,-6.03077,0.593655,1,1,33793.3,40872.7,1690,0.84551066,3.5885201,74.209473,293.54541,9.94227,333.843,-4.57051,-18.43,23.6196,25.9761
1980-01-13 12:21:03,1,-9.03333,6.4,-6.44167,0.433574,1,1,33574.6,42717.2,1690,0.84551549,3.5884485,74.201416,293.54517,10.2834,331.679,-1.54148,-16.6971,23.5431,26.5558
1980-01-13 12:21:44,1,-8.675,6.21667,-7.16667,0.387925,1,1,23048.8,29107.3,1690,0.84551549,3.5884485,74.19751,293.54517,8.69348,334.694,-6.87142,-17.5331,19.5066,21.9209
1980-01-13 12:22:25,1,-9.0,6.74167,-6.53333,0.285166,1,1,24109.4,39533.4,1690,0.84552026,3.588377,74.189697,293.54517,9.98578,333.618,-0.493202,-14.9271,19.9504,25.547
1980-01-13 12:23:05,1,-9.17692,6.56154,-6.41538,0.417941,1,1,25555.9,35113.8,1690,0.84552509,3.5883045,74.185791,293.54517,9.21774,333.384,-2.62852,-13.5668,20.5401,24.0767
1980-01-13 12:23:45,1,-8.94167,6.575,-6.40833,0.418413,1,1,24080.8,37016.0,1690,0.84552509,3.5883045,74.177979,293.54517,9.33498,335.17,-3.56754,-16.553,19.9385,24.7203
1980-01-13 12:24:26,1,-9.08333,6.26667,-6.8,0.327024,1,1,28687.0,28663.4,1690,0.84552985,3.588233,74.170166,293.54517,8.90617,334.476,-7.54307,-15.8373,21.7621,21.7531
1980-01-13 12:25:07,1,-9.19167,6.2,-6.7,0.262864,1,1,26301.9,37160.8,1690,0.84553468,3.5881615,74.16626,293.54517,9.53674,333.747,-3.81737,-16.2738,20.8378,24.7685
1980-01-13 12:25:47,1,-9.1,5.975,-6.85,0.403371,1,1,23893.1,26910.3,1690,0.84553468,3.5881615,74.158447,293.54517,8.46604,332.815,-9.64488,-15.7289,19.8607,21.0774
1980-01-13 12:26:27,1,-9.34167,5.50833,-6.7,0.288434,1,1,27996.7,40688.2,1690,0.84553945,3.588089,74.154297,293.54492,10.1776,332.284,-9.09351,-16.871,21.4987,25.9174
1980-01-13 12:27:08,1,-9.20833,5.95833,-6.78333,0.403629,1,1,27240.9,28950.0,1690,0.84554428,3.5880175,74.146484,293.54492,9.0755,331.15,-9.17427,-15.4196,21.2065,21.8616
1980-01-13 12:27:49,1,-9.18333,6.20833,-7.2,0.179312,1,1,26430.0,38026.3,1690,0.84554428,3.5880175,74.138672,293.54492,9.5904,334.197,-5.05148,-16.5564,20.8885,25.0553
1980-01-13 12:28:29,1,-9.06154,6.13846,-7.07692,0.366335,1,1,29196.8,28945.4,1690,0.84554905,3.5879459,74.134766,293.54492,9.79142,334.449,-8.02022,-16.1792,21.9546,21.8599
1980-01-13 12:29:10,1,-9.01818,5.46364,-6.96364,0.46194,1,1,27696.2,38254.5,1690,0.84555387,3.5878735,74.126953,293.54492,9.7197,329.982,-7.0718,-19.8919,21.383,25.1304
1980-01-13 12:29:50,1,-8.65833,5.49167,-7.16667,0.418828,1,1,29139.4,31492.1,1690,0.84555387,3.5878735,74.123047,293.54492,9.67187,333.238,-9.19092,-19.0015,21.933,22.8013
1980-01-13 12:30:31,1,-8.85,4.75,-7.3,0.467262,1,1,26743.8,40586.7,1690,0.84555864,3.5878019,74.115234,293.54492,10.5247,335.342,-8.23446,-24.441,21.0121,25.8851
1980-01-13 12:31:11,1,-9.35385,4.36923,-7.04615,0.371308,1,1,28755.7,37781.7,1690,0.84556341,3.5877304,74.111084,293.54468,9.39323,330.6,-12.2465,-20.5528,21.7881,24.9746
1980-01-13 12:31:52,1,-9.19167,4.475,-7.05,0.511669,1,1,26021.7,42410.6,1690,0.84556347,3.5877304,74.103271,293.54468,9.44836,328.524,-12.6033,-21.8237,20.7265,26.4603
1980-01-13 12:32:32,1,-9.55,4.9,-6.81667,0.424918,1,1,28584.9,32391.5,1690,0.84556824,3.5876579,74.095459,293.54468,9.58388,329.976,-10.282,-19.7037,21.7233,23.1246
1980-01-13 12:33:13,1,-9.35,4.75,-7.31667,0.525727,1,1,28201.2,35746.8,1690,0.84557301,3.5875864,74.091553,293.54468,9.18334,329.477,-9.34838,-21.9915,21.577,24.2928
1980-01-13 12:33:53,1,-9.1,5.12308,-7.33846,0.343494,1,1,23770.9,32587.8,1690,0.84557307,3.5875864,74.08374,293.54468,9.98666,334.009,-10.6438,-19.6175,19.8098,23.1945
1980-01-13 12:34:34,1,-9.275,5.16667,-6.85,0.367329,1,1,31402.5,41124.7,1690,0.84557784,3.5875149,74.079834,293.54468,10.4809,333.369,-8.17618,-18.418,22.7688,26.0561
1980-01-13 12:35:14,1,-9.42308,5.03077,-7.03077,0.32326,1,1,27246.5,27101.3,1690,0.8455826,3.5874424,74.072021,293.54468,9.73048,333.662,-10.5124,-17.3779,21.2087,21.1521
1980-01-13 12:35:55,1,-9.51667,4.66667,-7.16667,0.35,1,1,30268.8,39915.7,1690,0.8455826,3.5874424,74.068115,293.54468,10.0143,333.603,-10.8848,-18.4282,22.354,25.6702
1980-01-13 12:36:35,1,-9.98462,4.42308,-6.96923,0.413958,1,1,26934.7,25590.7,1690,0.84558743,3.5873709,74.060059,293.54443,9.76716,333.454,-12.4671,-16.0415,21.087,20.5541
1980-01-13 12:37:16,1,-9.975,4.45833,-6.43333,0.799913,1,1,24272.0,41277.2,1690,0.8455922,3.5872993,74.052246,293.54443,10.1566,332.268,-12.6504,-16.9391,20.0175,26.1044
1980-01-13 12:38:36,1,-9.48,5.68,-6.44,0.263818,1,1,28398.3,40727.3,1690,0.84559703,3.5872269,74.040527,293.54443,10.9853,334.091,-6.87435,-16.3907,21.6523,25.9299
1980-01-13 12:39:16,1,-10.075,4.86667,-6.65,0.717587,1,1,25849.0,27926.2,1690,0.8456018,3.5871553,74.036621,293.54443,9.36428,333.343,-12.3972,-15.1229,20.6576,21.4716
1980-01-13 12:41:18,1,-5.14167,9.50833,-7.1,0.769108,1,1,26902.1,31370.3,1690,0.84561139,3.5870123,74.016846,293.54419,9.08494,338.287,-4.44811,-16.906,21.0742,22.7571
1980-01-13 12:41:19,1,-5.15455,9.56364,-7.08182,0.776302,1,1,35411.8,39219.3,1690,0.845559,3.5887637,73.937439,293.46478,9.4001,337.263,0.231647,-18.9368,24.1786,25.4453
1980-01-13 12:41:58,1,-5.25,9.43333,-6.95833,2.18453,1,1,40492.1,35174.3,1690,0.84561139,3.5870123,74.009033,293.54419,9.24107,333.095,-6.79513,-18.3591,25.8549,24.0974
1980-01-13 12:41:59,1,-5.35,9.28333,-7.075,2.13676,1,1,46930.5,36509.5,1690,0.84561139,3.5870123,74.009033,293.54419,10.0039,343.009,-1.25786,-19.8897,27.8346,24.5505
1980-01-13 12:42:40,1,-4.58462,8.47692,-7.58462,2.24905,1,1,39932.5,37750.5,1690,0.84561622,3.5869398,74.005127,293.54419,10.2784,347.248,-3.12975,-22.4953,25.6756,24.9643
1980-01-13 12:43:20,1,-5.36923,8.73077,-7.5,0.736697,1,1,47099.4,40235.2,1690,0.84562099,3.5868683,73.997314,293.54419,10.2702,345.211,3.68507,-20.1591,27.8847,25.7728
1980-01-13 12:44:01,1,-5.075,8.54167,-7.425,0.482542,1,1,40313.9,45325.6,1690,0.84562582,3.5867968,73.993408,293.54419,10.5657,345.254,0.842153,-18.7319,25.798,27.3545
1980-01-13 12:44:41,1,-5.08333,8.275,-7.125,1.23023,1,1,48841.1,41366.2,1690,0.84562582,3.5867968,73.985596,293.54419,11.0612,348.287,4.28643,-19.3116,28.3956,26.1325
1980-01-13 12:45:22,1,-5.83846,8.13077,-6.8,1.12381,1,1,56361.7,35886.6,1690,0.84563059,3.5867243,73.977783,293.54419,11.9824,355.754,11.215,-20.2268,30.5035,24.3402
1980-01-13 12:46:02,-1,nan,nan,nan,nan,1,4,nan,nan,1690,0.84563541,3.5866528,73.973633,293.54395,nan,nan,nan,nan,nan,nan
1980-01-13 12:46:43,1,-12.25,0.4,-2.85,1.62429,1,1,28191.5,43514.5,1690,0.84563541,3.5866528,73.96582,293.54395,10.2708,324.211,-19.2226,-9.04282,21.5733,26.8025
1980-01-13 12:47:23,1,-12.4636,-0.336364,-2.35455,0.525546,1,1,26002.2,37591.7,1690,0.84564018,3.5865812,73.961914,293.54395,8.16255,325.791,-29.5669,0.327528,20.7187,24.9117
1980-01-13 12:48:04,1,-12.3667,0.341667,-3.0,0.353062,1,1,23540.2,43490.1,1690,0.84564501,3.5865088,73.954102,293.54395,9.53206,324.38,-21.7818,-6.08903,19.7135,26.795
1980-01-13 12:48:44,1,-12.2917,0.666667,-2.93333,0.454835,1,1,30448.7,40754.1,1690,0.84564501,3.5865088,73.950195,293.54395,10.6202,326.08,-21.388,-5.01035,22.4203,25.9384
1980-01-13 12:49:25,1,-12.3167,0.65,-2.85833,0.847341,1,1,29776.9,45033.5,1690,0.84564978,3.5864372,73.942383,293.54395,10.426,324.689,-18.3737,-8.59533,22.1716,27.2663
1980-01-13 12:50:05,1,-12.2909,2.31818,-3.03636,0.483445,1,1,31893.1,44950.8,1690,0.84565461,3.5863657,73.93457,293.54395,10.7234,326.984,-8.19069,-9.30388,22.946,27.2412
1980-01-13 12:50:46,1,-12.0333,2.75833,-3.56667,1.00592,1,1,29905.9,40546.5,1690,0.84565461,3.5863657,73.930664,293.54395,10.0757,324.085,-10.7667,-8.64785,22.2196,25.8723
1980-01-13 12:51:26,1,-11.1909,4.59091,-4.41818,0.829816,1,1,26087.7,37900.0,1690,0.84565938,3.5862932,73.922607,293.5437,9.37941,330.184,1.87717,-18.642,20.7527,25.0137
1980-01-13 12:52:07,1,-12.1583,1.63333,-2.93333,0.44558,1,1,25442.9,44388.4,1690,0.8456642,3.5862217,73.918701,293.5437,9.34012,323.598,-13.7003,-8.31229,20.4947,27.0703
1980-01-13 12:52:47,1,-12.325,1.06667,-2.925,0.478859,1,1,32994.7,43418.1,1690,0.8456642,3.5862217,73.910889,293.5437,10.5507,325.066,-13.5733,-6.81867,23.3389,26.7728
1980-01-13 12:53:28,1,-11.1417,1.83333,-4.63333,0.481534,1,1,32774.8,42942.6,1690,0.84566897,3.5861502,73.903076,293.5437,10.3156,330.13,-9.30414,-16.6574,23.261,26.6258
1980-01-13 12:54:08,1,-10.475,3.98333,-5.43333,0.700347,1,1,32813.5,32429.8,1690,0.8456738,3.5860777,73.89917,293.5437,9.32144,330.581,-7.56806,-18.3325,23.2747,23.1382
1980-01-13 12:54:52,1,-10.0667,2.90833,-4.325,1.31334,1,1,45699.3,55279.1,1690,0.8456738,3.5860777,73.891357,293.5437,9.3174,359.842,-52.5012,-21.6184,27.4671,30.2091
1980-01-13 12:55:33,2,-6.49333,0.623333,-4.79,0.142517,1,1,158361.0,65166.4,1690,0.84567857,3.5860062,73.887451,293.5437,16.0252,354.928,1.52446,-5.96476,51.1308,32.7997
1980-01-13 12:56:13,2,-6.94,1.5625,-5.5225,0.587782,1,1,43310.8,22053.7,1690,0.8456834,3.5859346,73.879395,293.54346,8.70109,344.99,1.60426,-16.7468,26.7397,19.0809
1980-01-13 12:56:54,2,-6.4025,2.445,-5.4025,1.31385,1,1,45004.8,41468.4,1690,0.8456834,3.5859346,73.871582,293.54346,9.56691,338.902,-1.78701,-17.4224,27.2576,26.1648
1980-01-13 12:57:31,2,-5.515,2.9275,-4.9025,0.274431,1,1,135235.0,45893.4,1690,0.84568816,3.5858622,73.867676,293.54346,14.8524,353.807,6.49332,-9.07912,47.25,27.5253
1980-01-13 12:58:11,2,-6.0875,0.645,-5.3125,0.233907,1,1,152032.0,64869.5,1690,0.84569299,3.5857906,73.859863,293.54346,16.8971,357.352,0.94474,-5.17532,50.0986,32.7249
1980-01-13 12:58:52,2,-6.315,0.2725,-5.3925,0.370759,1,1,153751.0,68128.5,1690,0.84569299,3.5857906,73.855957,293.54346,16.2414,359.592,4.14759,-6.6739,50.381,33.5368
1980-01-13 12:59:32,2,-6.7775,-0.29,-5.355,0.270451,1,1,138021.0,58058.4,1690,0.84569776,3.5857191,73.848145,293.54346,14.6891,357.407,1.26019,-9.80821,47.7343,30.9592
1980-01-13 13:01:34,-1,nan,nan,nan,nan,1,4,nan,nan,1690,0.84570736,3.5855751,73.832275,293.54321,nan,nan,nan,nan,nan,nan
1980-01-13 13:02:14,1,-4.68462,4.33077,-4.39231,0.953288,1,1,115996.0,91805.2,1690,0.84571213,3.5855036,73.824463,293.54321,20.4316,352.096,-7.91335,-5.35535,43.7602,38.9306
1980-01-13 13:02:55,1,-6.60833,3.94167,-2.80833,0.99781,1,1,101168.0,93276.7,1690,0.84571213,3.5855036,73.81665,293.54321,19.1807,353.702,-9.42376,-4.39974,40.8675,39.2414
1980-01-13 13:03:35,1,-7.60714,2.42143,-1.2,0.696566,1,1,134145.0,89640.1,1690,0.84571695,3.5854321,73.812744,293.54321,21.3373,348.962,-6.58919,-4.23316,47.0592,38.4688
1980-01-13 13:04:16,1,-6.89231,2.56923,-2.11538,0.621032,1,1,103103.0,94715.8,1690,0.84572172,3.5853596,73.804932,293.54321,21.209,351.747,-7.85212,-5.26185,41.2565,39.543
1980-01-13 13:04:56,1,-6.88462,3.06923,-1.53077,1.10636,1,1,107703.0,94435.1,1690,0.84572172,3.5853596,73.801025,293.54321,21.5835,349.108,-10.0588,-4.40967,42.1669,39.4843
1980-01-13 13:05:37,1,-6.975,2.93333,-0.883333,1.00689,1,1,103018.0,87595.4,1690,0.84572655,3.585288,73.792969,293.54297,21.0454,351.553,1.57283,-7.75854,41.2395,38.0276
1980-01-13 13:06:17,1,-4.87692,1.79231,0.0384615,0.739182,1,1,127192.0,110148.0,1690,0.84573132,3.5852165,73.785156,293.54297,23.4517,361.086,-1.1135,-1.11592,45.8235,42.6428
1980-01-13 13:06:58,1,-2.63846,3.50769,1.28462,0.995255,1,1,128057.0,114087.0,1690,0.84573132,3.5852165,73.78125,293.54297,21.7335,356.547,-3.28155,-1.39734,45.9791,43.3985